Location: Lake Almanor
(40.2485°N, 121.1442°W)
Time: 23:23:30
(UTC-08:00)

STARLINK-1075 - Pass Details

Date: 31 January 2020
Orbit: 349 x 351 km, 53.0° (Epoch: 22 February)

Event Time Altitude Azimuth Distance (km) Brightness Sun altitude
Rises 18:03:28 0° 316° (NW) 2,176 7.1 -8.4°
Reaches altitude 10° 18:05:38 10° 327° (NNW) 1,329 5.8 -8.8°
Maximum altitude 18:08:19 30° 32° (NNE) 665 3.7 -9.3°
Enters shadow 18:10:25 14° 91° (E) 1,119 4.6 -9.7°
